Skip Page Navigation
NASA JPL Caltech
NASA Logo - Jet Propulsion Laboratory + View the NASA Portal
+ Center for Near-Earth Object Studies
JPL Home Earth Solar System Stars & Galaxies Technology
JPL Solar System Dynamics
BODIES ORBITS EPHEMERIDES TOOLS PHYSICAL DATA DISCOVERY FAQ SITE MAP
IMPORTANT: The SSD Announcement email list is now available. Major changes are coming in the near future, including possible hostname and/or URL changes. To be notified of such changes, subscribe to this email list.

Please visit this page for more details.


JPL Small-Body Database Browser
Search: [ help ]  
59234 (1999 CR1)
Classification: Main-belt Asteroid          SPK-ID: 2059234
Ephemeris | Orbit Diagram | Orbital Elements | Mission Design | Physical Parameters | Discovery Circumstances ]

[ show orbit diagram ]
Orbital Elements at Epoch 2458600.5 (2019-Apr-27.0) TDB
Reference: JPL 22 (heliocentric ecliptic J2000)
 Element Value Uncertainty (1-sigma)   Units 
e .06022838095928212 4.677e-08  
a 2.655583396067717 1.6186e-08 au
q 2.495641907620207 1.2484e-07 au
i 14.41469535781742 5.1004e-06 deg
node 349.8125913142006 1.7157e-05 deg
peri 204.5770489812928 4.3597e-05 deg
M 200.1937593114314 4.1401e-05 deg
tp 2459302.164619180652
(2021-Mar-28.66461918)
0.00018234 TDB
period 1580.659565087335
4.33
1.4451e-05
3.956e-08
d
yr
n .2277530266171572 2.0823e-09 deg/d
Q 2.815524884515228 1.7161e-08 au
  Orbit Determination Parameters
   # obs. used (total)      804  
   data-arc span      9935 days (27.20 yr)  
   first obs. used      1992-09-24  
   last obs. used      2019-12-07  
   planetary ephem.      DE431  
   SB-pert. ephem.      SB431-N16  
   condition code      0  
   norm. resid. RMS      .55286  
   source      ORB  
   producer      Otto Matic  
   solution date      2019-Dec-14 06:08:14  

Additional Information
 Earth MOID = 1.50351 au 
 Jupiter MOID = 2.16621 au 
 T_jup = 3.341 
[ show covariance matrix ]

Ephemeris | Orbit Diagram | Orbital Elements | Mission Design | Physical Parameters | Discovery Circumstances ]

Physical Parameter Table
Parameter Symbol Value Units Sigma Reference Notes
absolute magnitude H 14.9   n/a MPO452972  

59234 (1999 CR1)          Discovered 1999-Feb-07 by Kobayashi, T. at Oizumi
Reference: 20030614/Numbers.arcLast Updated: 2004-04-19

Alternate Designations
 1999 CR1 = 2001 RF67 
Ephemeris | Orbit Diagram | Orbital Elements | Mission Design | Physical Parameters | Discovery Circumstances ]
ABOUT SSD CREDITS/AWARDS PRIVACY/COPYRIGHT GLOSSARY LINKS
FirstGov 2020-Jan-20 12:19 UT
(server date/time)  
NASA Home Page
Site Manager:   Ryan S. Park
Webmaster  Alan B. Chamberlin